TimeMST,TemperatureF,Dew PointF,Humidity,Sea Level PressureIn,VisibilityMPH,Wind Direction,Wind SpeedMPH,Gust SpeedMPH,PrecipitationIn,Events,Conditions,WindDirDegrees,DateUTC
12:15 AM,3.2,-0.4,85,29.93,10.0,Calm,Calm,-,N/A,,Scattered Clouds,0,2013-01-30 07:15:00
12:35 AM,1.4,-2.2,85,29.93,10.0,Calm,Calm,-,N/A,,Clear,0,2013-01-30 07:35:00
12:55 AM,-0.4,-4.0,85,29.93,10.0,West,4.6,-,N/A,,Clear,270,2013-01-30 07:55:00
1:15 AM,-4.0,-7.6,85,29.94,10.0,West,3.5,-,N/A,,Scattered Clouds,270,2013-01-30 08:15:00
1:35 AM,-0.4,-4.0,85,29.93,10.0,NW,3.5,-,N/A,,Clear,320,2013-01-30 08:35:00
1:55 AM,1.4,-2.2,85,29.93,10.0,NNW,3.5,-,N/A,,Mostly Cloudy,340,2013-01-30 08:55:00
2:15 AM,1.4,-2.2,85,29.93,10.0,Calm,Calm,-,N/A,,Overcast,0,2013-01-30 09:15:00
2:35 AM,-0.4,-4.0,85,29.93,10.0,East,3.5,-,N/A,,Overcast,90,2013-01-30 09:35:00
2:55 AM,3.2,-0.4,85,29.93,10.0,West,3.5,-,N/A,,Overcast,280,2013-01-30 09:55:00
3:15 AM,6.8,3.2,85,29.92,7.0,WNW,6.9,-,N/A,,Overcast,290,2013-01-30 10:15:00
3:35 AM,10.4,8.6,92,29.92,10.0,WNW,13.8,-,N/A,,Overcast,300,2013-01-30 10:35:00
3:55 AM,12.2,8.6,85,29.92,10.0,WNW,12.7,-,N/A,,Overcast,300,2013-01-30 10:55:00
4:15 AM,14.0,8.6,79,29.92,10.0,West,9.2,-,N/A,,Overcast,270,2013-01-30 11:15:00
4:35 AM,14.0,10.4,86,29.93,10.0,WNW,12.7,-,N/A,Snow,Light Snow,300,2013-01-30 11:35:00
4:55 AM,15.8,10.4,79,29.93,10.0,WNW,13.8,-,N/A,Snow,Light Snow,300,2013-01-30 11:55:00
5:15 AM,14.0,10.4,86,29.92,10.0,WNW,12.7,-,N/A,Snow,Light Snow,300,2013-01-30 12:15:00
5:35 AM,14.0,10.4,86,29.92,10.0,NW,10.4,-,N/A,,Overcast,320,2013-01-30 12:35:00
5:55 AM,14.0,10.4,86,29.92,10.0,NW,11.5,-,N/A,,Overcast,320,2013-01-30 12:55:00
6:15 AM,15.8,12.2,86,29.91,10.0,NNW,13.8,-,N/A,,Overcast,330,2013-01-30 13:15:00
6:35 AM,14.0,10.4,86,29.92,10.0,NW,13.8,-,N/A,,Scattered Clouds,320,2013-01-30 13:35:00
6:55 AM,14.0,10.4,86,29.93,10.0,WNW,11.5,-,N/A,,Clear,290,2013-01-30 13:55:00
7:15 AM,14.0,10.4,86,29.93,10.0,West,11.5,-,N/A,,Clear,270,2013-01-30 14:15:00
7:35 AM,14.0,10.4,86,29.93,10.0,WNW,11.5,-,N/A,,Scattered Clouds,290,2013-01-30 14:35:00
7:55 AM,15.8,12.2,86,29.93,7.0,WNW,16.1,-,N/A,,Scattered Clouds,290,2013-01-30 14:55:00
8:15 AM,17.6,14.0,86,29.93,10.0,WNW,13.8,-,N/A,,Mostly Cloudy,300,2013-01-30 15:15:00
8:35 AM,19.4,14.0,80,29.93,10.0,WNW,12.7,-,N/A,,Overcast,300,2013-01-30 15:35:00
8:55 AM,19.4,14.0,80,29.93,10.0,NW,15.0,-,N/A,,Overcast,310,2013-01-30 15:55:00
9:15 AM,19.4,14.0,80,29.93,10.0,WNW,12.7,-,N/A,,Overcast,300,2013-01-30 16:15:00
9:35 AM,21.2,14.0,74,29.93,10.0,WNW,12.7,-,N/A,,Overcast,300,2013-01-30 16:35:00
9:55 AM,21.2,15.8,80,29.93,10.0,NW,12.7,-,N/A,,Overcast,310,2013-01-30 16:55:00
10:15 AM,21.2,17.6,86,29.93,10.0,NW,15.0,-,N/A,,Overcast,310,2013-01-30 17:15:00
10:35 AM,23.0,17.6,80,29.94,5.0,NW,13.8,-,N/A,,Haze,310,2013-01-30 17:35:00
10:55 AM,23.0,19.4,86,29.94,10.0,NW,12.7,-,N/A,,Overcast,310,2013-01-30 17:55:00
11:15 AM,23.0,19.4,86,29.95,4.0,NW,12.7,-,N/A,Snow,Light Snow,320,2013-01-30 18:15:00
11:35 AM,23.0,19.4,86,29.93,3.0,NW,15.0,-,N/A,Snow,Light Snow,320,2013-01-30 18:35:00
11:55 AM,24.8,19.4,80,29.93,7.0,NW,16.1,-,N/A,,Overcast,310,2013-01-30 18:55:00
12:15 PM,24.8,21.2,86,29.92,2.5,NW,16.1,-,N/A,Snow,Light Snow,320,2013-01-30 19:15:00
12:35 PM,26.6,21.2,80,29.91,7.0,NW,18.4,-,N/A,,Overcast,320,2013-01-30 19:35:00
12:55 PM,26.6,21.2,80,29.90,10.0,NW,19.6,-,N/A,,Mostly Cloudy,320,2013-01-30 19:55:00
1:15 PM,28.4,21.2,74,29.90,10.0,WNW,27.6,32.2,N/A,,Mostly Cloudy,300,2013-01-30 20:15:00
1:35 PM,28.4,21.2,74,29.90,2.0,NW,20.7,31.1,N/A,,Haze,310,2013-01-30 20:35:00
1:55 PM,28.4,21.2,74,29.90,10.0,NW,24.2,29.9,N/A,,Scattered Clouds,320,2013-01-30 20:55:00
2:15 PM,28.4,21.2,74,29.90,10.0,NW,21.9,27.6,N/A,,Scattered Clouds,320,2013-01-30 21:15:00
2:35 PM,28.4,21.2,74,29.91,7.0,NW,20.7,28.8,N/A,,Scattered Clouds,320,2013-01-30 21:35:00
2:55 PM,28.4,21.2,74,29.92,7.0,NW,21.9,29.9,N/A,,Clear,310,2013-01-30 21:55:00
3:15 PM,26.6,21.2,80,29.92,10.0,NW,23.0,-,N/A,,Clear,320,2013-01-30 22:15:00
3:35 PM,28.4,21.2,74,29.92,10.0,NW,21.9,26.5,N/A,,Clear,310,2013-01-30 22:35:00
3:55 PM,26.6,21.2,80,29.93,10.0,NW,21.9,-,N/A,,Clear,310,2013-01-30 22:55:00
4:15 PM,26.6,21.2,80,29.93,10.0,NW,18.4,-,N/A,,Scattered Clouds,310,2013-01-30 23:15:00
4:35 PM,24.8,21.2,86,29.93,10.0,NW,18.4,-,N/A,,Scattered Clouds,310,2013-01-30 23:35:00
4:55 PM,23.0,19.4,86,29.94,10.0,NNW,12.7,-,N/A,,Clear,330,2013-01-30 23:55:00
5:15 PM,21.2,17.6,86,29.95,10.0,NNW,10.4,-,N/A,,Scattered Clouds,330,2013-01-31 00:15:00
5:35 PM,21.2,17.6,86,29.95,10.0,NW,11.5,-,N/A,,Mostly Cloudy,320,2013-01-31 00:35:00
5:55 PM,21.2,19.4,93,29.95,10.0,NW,13.8,-,N/A,,Scattered Clouds,320,2013-01-31 00:55:00
6:15 PM,19.4,19.4,100,29.95,10.0,NNW,12.7,-,N/A,,Scattered Clouds,330,2013-01-31 01:15:00
6:35 PM,21.2,19.4,93,29.95,10.0,NW,12.7,-,N/A,,Scattered Clouds,320,2013-01-31 01:35:00
6:55 PM,21.2,19.4,93,29.95,10.0,NW,12.7,-,N/A,,Scattered Clouds,320,2013-01-31 01:55:00
7:15 PM,23.0,19.4,86,29.95,10.0,NW,15.0,-,N/A,,Scattered Clouds,310,2013-01-31 02:15:00
7:35 PM,21.2,19.4,93,29.95,10.0,NW,12.7,-,N/A,,Scattered Clouds,310,2013-01-31 02:35:00
7:55 PM,21.2,19.4,93,29.95,10.0,WNW,10.4,-,N/A,Snow,Light Snow,290,2013-01-31 02:55:00
8:15 PM,21.2,19.4,93,29.95,7.0,NW,9.2,-,N/A,Snow,Light Snow,310,2013-01-31 03:15:00
8:35 PM,19.4,19.4,100,29.96,10.0,West,6.9,-,N/A,,Clear,280,2013-01-31 03:35:00
8:55 PM,19.4,19.4,100,29.96,10.0,West,6.9,-,N/A,,Mostly Cloudy,270,2013-01-31 03:55:00
9:15 PM,23.0,21.2,93,29.97,10.0,WNW,9.2,-,N/A,,Mostly Cloudy,290,2013-01-31 04:15:00
9:35 PM,21.2,19.4,93,29.96,5.0,WNW,5.8,-,N/A,Snow,Light Snow,300,2013-01-31 04:35:00
9:55 PM,23.0,21.2,93,29.97,5.0,West,10.4,-,N/A,Snow,Light Snow,280,2013-01-31 04:55:00
10:15 PM,24.8,23.0,93,29.97,1.5,WNW,5.8,-,N/A,Snow,Light Snow,300,2013-01-31 05:15:00
10:35 PM,24.8,23.0,93,29.97,10.0,WNW,10.4,-,N/A,Snow,Light Snow,300,2013-01-31 05:35:00
10:55 PM,21.2,19.4,93,29.97,10.0,NW,10.4,-,N/A,,Scattered Clouds,320,2013-01-31 05:55:00
11:15 PM,21.2,21.2,100,29.98,10.0,WNW,12.7,-,N/A,,Scattered Clouds,300,2013-01-31 06:15:00
11:35 PM,23.0,21.2,93,29.99,10.0,NW,12.7,-,N/A,,Scattered Clouds,310,2013-01-31 06:35:00
11:55 PM,24.8,23.0,93,29.99,10.0,WNW,16.1,-,N/A,,Mostly Cloudy,290,2013-01-31 06:55:00